Main page
METAR-TAF:

METAR-TAF

Airports :

Kavala, Greece

Kavala International Airport

latitude: 40-59N, longitude: 024-36E, elevation: 5 m

Current weather observation

The report was made 27 minutes ago, at 22:50 UTC
Calm wind
Temperature 20°C
Humidity 78%
Pressure 1017 hPa
Visibility 10 km or more
no clouds below 1500 m and no cumulonimbus

METAR: LGKV 232250Z 00000KT CAVOK 20/16 Q1017

Time: 02:17 (23:17 UTC)

Forecast

The report was made 3 hours and 17 minutes ago, at 20:00 UTC
Forecast valid from 23 at 21 UTC to 24 at 06 UTC
Wind 3 kt from variable directions
Visibility 10 km or more
Few clouds at a height of 2000 ft

TAF: LGKV 232000Z 2321/2406 VRB03KT 9999 FEW020

Weather observations and forecasts of more than 4000 airports (METAR and TAF reports).

The available stations are represented by yellow and red dots on the map.

Hover mouse over dot to see the name of the station.

Then click to see weather observations and forecasts.

To change the map : click on the green buttons with a black cross to zoom in, on the green button with a dash to zoom out, or on the green arrows for adjacent maps.


METAR-TAF: